Location: Unspecified
(0.0000°N, 0.0000°E)
Time: 15:00:02
(UTC+00:00)

Quakesat - Pass Details

Date: 29 July 2021
Orbit: 811 x 823 km, 98.7° (Epoch: 17 September)

Event Time Altitude Azimuth Distance (km) Brightness Sun altitude
Rises 05:12:51 0° 36° (NE) 3,344 ? -12.7°
Reaches altitude 10° 05:15:36 10° 49° (NE) 2,414 ? -12.0°
Maximum altitude 05:19:52 25° 103° (ESE) 1,619 ? -11.0°
Drops below altitude 10° 05:24:09 10° 156° (SSE) 2,418 ? -10.0°
Sets 05:26:53 0° 169° (S) 3,351 ? -9.4°
